Regional Weather Roundup
Issued by NWS Upton, NY

Current Version | Previous Version | Text Only | Print | Product List | Glossary On
Versions: 1 2 3 4 5 6 7 8 9 10 11 12 13 14 15 16 17 18 19 20 21 22 23 24 25 26 27
000 ASUS41 KOKX 260405 RWROKX REGIONAL WEATHER ROUNDUP NATIONAL WEATHER SERVICE NEW YORK NY 1200 AM EDT THU MAY 26 2016 NOTE: "FAIR" INDICATES FEW OR NO CLOUDS BELOW 12,000 FEET WITH NO SIGNIFICANT WEATHER AND/OR OBSTRUCTIONS TO VISIBILITY. NYZ071-072-176-178-NJZ106-104-260500- NEW YORK CITY METRO AREA CITY SKY/WX TMP DP RH WIND PRES REMARKS CENTRAL PARK CLEAR 77 46 33 W5 30.09R LAGUARDIA APRT PTCLDY 82 53 36 W10 30.04S KENNEDY INTL PTCLDY 71 52 50 W7 30.06S NEWARK/LIBERTY PTCLDY 75 48 38 SW10 30.06R BRNX BOT. GARD N/A 79 46 31 SW12 30.08R TETERBORO CLEAR 70 49 47 CALM 30.05R $$ NYZ177-179-078>081-260500- LONG ISLAND NEW YORK CITY SKY/WX TMP DP RH WIND PRES REMARKS FARMINGDALE CLEAR 66 54 65 S3 30.06R ISLIP PTCLDY 64 55 72 SW5 30.05F SHIRLEY CLEAR 65 56 72 S5 30.06S RIVERHEAD N/A 63 54 72 CALM 30.05S WESTHAMPTON NOT AVBL EAST HAMPTON FAIR 64 50 60 W3 30.05S MONTAUK POINT N/A 68 50 52 CALM 30.05F $$ NYZ052-065-067-260500- HUDSON VALLEY CITY SKY/WX TMP DP RH WIND PRES REMARKS WHITE PLAINS CLEAR 67 51 56 CALM 30.06S NEWBURGH PTCLDY 72 55 56 CALM 30.06F MONTGOMERY PTCLDY 63 58 83 CALM 30.05S POUGHKEEPSIE PTCLDY 65 58 78 CALM 30.04S ALBANY PTCLDY 64 54 69 S6 30.04S $$ NJZ001-105-106-008-010-013-015-019>022-104-260500- NEW JERSEY CITY SKY/WX TMP DP RH WIND PRES REMARKS NEWARK/LIBERTY PTCLDY 75 48 38 SW10 30.06R TETERBORO CLEAR 70 49 47 CALM 30.05R CALDWELL CLEAR 72 50 45 S5 30.06S MORRISTOWN CLEAR 61 50 67 CALM 30.07S SOMERVILLE CLEAR 60 55 83 CALM 30.06S SUSSEX CLEAR 61 55 81 CALM 30.08S ANDOVER N/A 62 56 80 CALM 30.09S TRENTON CLEAR 72 51 47 SW3 30.08S MILLVILLE CLOUDY 62 55 77 SW3 30.11S ATLANTIC CITY CLEAR 62 54 74 CALM 30.10S WRIGHTSTOWN CLEAR 67 54 63 W5 30.07S TOMS RIVER CLEAR 66 48 52 SW5 30.09S BELMAR PTCLDY 72 52 49 SW7 30.09S $$ PAZ047>061-062-071-260500- EASTERN PENNSYLVANIA CITY SKY/WX TMP DP RH WIND PRES REMARKS PHILADELPHIA MOCLDY 72 54 53 SW5 30.10S ALLENTOWN CLOUDY 67 51 56 W3 30.09S SCRANTON CLOUDY 69 50 50 CALM 30.10R $$ CTZ002-004>006-009-010-012-RIZ004-006-007-MAZ004-011-015-260500- SOUTHERN NEW ENGLAND IN CT CITY SKY/WX TMP DP RH WIND PRES REMARKS BRADLEY INTL MOCLDY 68 53 58 CALM 30.03S HARTFORD PTCLDY 69 55 60 CALM 30.04R DANBURY CLEAR 60 54 80 SW3 30.07S WTRBRY/OXFORD N/A 63 50 63 CALM 30.06F BRIDGEPORT CLEAR 69 53 56 CALM 30.04S MERIDEN CLOUDY 63 56 78 CALM 30.04S NEW HAVEN CLEAR 62 52 69 S3 30.04S CHESTER FAIR 68 52 56 CALM 30.05S GROTON CLEAR 64 53 67 CALM 30.03S WILLIMANTIC PTCLDY 68 55 63 CALM 30.05R IN RI CITY SKY/WX TMP DP RH WIND PRES REMARKS PROVIDENCE PTCLDY 72 49 44 W9 30.02S BLOCK ISLAND CLEAR 63 50 62 W10 30.05F WESTERLY CLEAR 69 48 47 SW5 30.04S IN MA CITY SKY/WX TMP DP RH WIND PRES REMARKS BOSTON CLEAR 77 52 41 W13 29.99R WORCESTER CLEAR 69 50 50 W10 30.06R WESTFIELD CLEAR 63 55 75 CALM 30.04R PROVINCETOWN CLEAR 61 54 77 SW9 29.99S NANTUCKET CLEAR 63 51 65 W17G24 30.02S $$ ANZ330-335-338-340-345-350-353-355-260500- COASTAL MARINE OBSERVATIONS STATION/POSITION TIME SKY/WX TEMP WIND PRES VSBY WAVE AIR SEA DIR/SP/G HT/PER (UTC) (F) (DEG/KT/KT) (MB) (MI) (FT/S) NY HARB ENTRANCE 0250 64 61 220/ 10/ 12 1017.6 2/ 8 20S FIRE ISLAND 0250 62 57 220/ 14/ 16 1017.7 3/ 8 GREAT SOUTH BAY 0300 65 66 250/ 6/ 8 N/A 23 SSW MONTAUK P 0350 58 54 250/ 10/ 10 1017.2 3/ 6 15 E BARNEGAT LI 0322 56 N/A 3/ 9 HUDSON CANYON 0250 60 55 1018.9 3/ 6 KINGS POINT 0300 78 58 N/A EXECUTION ROCKS NOT AVBL CENTRAL LI SOUND 0315 63 250/ 4/ 6 N/A 1 EASTERN LI SOUND 0300 62 53 280/ 8/ 10 N/A ROBBINS REEF 0300 79 N/A $$ >>>>>>>>>>>>>>>>>>>>>>>>>>>> KEY <<<<<<<<<<<<<<<<<<<<<<<<<<< > < > SKY/WX - SKY CONDITION/PRESENT WEATHER < > TMP - TEMPERATURE IN FAHRENHEIT < > DP - DEWPOINT IN FAHRENHEIT < > RH - RELATIVE HUMIDITY IN PERCENT < > WIND - DIRECTION AND SPEED IN MPH < > PRES - MEAN SEA LEVEL PRESSURE IN INCHES OF HG < > WCI - WIND CHILL INDEX < > VSB - VISIBILITY IN MILES < > HX - HEAT INDEX < > TC - TEMPERATURE IN CELSIUS < > VRB - VARIABLE WIND DIRECTION < > < >>>>>>>>>>>>>>>>>>>>>>>>>>>> KEY <<<<<<<<<<<<<<<<<<<<<<<<<<<

USA.gov is the U.S. government's official web portal to all federal, state and local government web resources and services.